This is the latest recevied weather packets stored in our database for station/object SR4DIG-13. If no packets are shown the sender has not sent any weather packets the latest 10 day(s).
| Time | Temp. | Humidity | Pressure | Rain* | Wind** | Luminosity | Snow |
|---|---|---|---|---|---|---|---|
| 1778170256 | 13.89° C | 71% | 1011.4 hPa | 0 mm | - | - | - |
| 1778169955 | 14.44° C | 69% | 1011.2 hPa | 0 mm | - | - | - |
| 1778169654 | 14.44° C | 69% | 1011.3 hPa | 0 mm | - | - | - |
| 1778169353 | 14.44° C | 69% | 1011.2 hPa | 0 mm | - | - | - |
| 1778169052 | 15° C | 69% | 1011.2 hPa | 0 mm | - | - | - |
| 1778168563 | 15° C | 68% | 1011.1 hPa | 0 mm | - | - | - |
| 1778168262 | 15° C | 68% | 1011 hPa | 0 mm | - | - | - |
| 1778167962 | 15° C | 68% | 1011 hPa | 0 mm | - | - | - |
| 1778167661 | 15.56° C | 66% | 1011 hPa | 0 mm | - | - | - |
| 1778167244 | 15.56° C | 66% | 1010.9 hPa | 0 mm | - | - | - |
| 1778166943 | 16.11° C | 66% | 1010.9 hPa | 0 mm | - | - | - |
| 1778166642 | 16.11° C | 66% | 1011 hPa | 0 mm | - | - | - |
| 1778166341 | 16.11° C | 66% | 1011 hPa | 0 mm | - | - | - |
| 1778166038 | 16.11° C | 66% | 1011 hPa | 0 mm | - | - | - |
| 1778165737 | 16.11° C | 67% | 1010.9 hPa | 0 mm | - | - | - |
| 1778165436 | 16.11° C | 67% | 1010.9 hPa | 0 mm | - | - | - |
| 1778165136 | 16.11° C | 66% | 1010.8 hPa | 0 mm | - | - | - |
| 1778164835 | 16.11° C | 66% | 1010.8 hPa | 0 mm | - | - | - |
| 1778164534 | 16.67° C | 65% | 1010.7 hPa | 0 mm | - | - | - |
| 1778164233 | 17.22° C | 64% | 1010.6 hPa | 0 mm | - | - | - |
| 1778163938 | 17.22° C | 63% | 1010.4 hPa | 0 mm | - | - | - |
| 1778163631 | 17.22° C | 63% | 1010.4 hPa | 0 mm | - | - | - |
| 1778163331 | 17.78° C | 62% | 1010.3 hPa | 0 mm | - | - | - |
| 1778163029 | 17.78° C | 61% | 1010.4 hPa | 0 mm | - | - | - |
| 1778162728 | 18.89° C | 60% | 1010.3 hPa | 0 mm | - | - | - |
* Rain since midnight (hover to see other rain measurements)
** Current wind speed in m/s (hover to see current wind gust speed)